Location: Okie-Tex Star Party
(36.8978°N, 102.9520°W)
Time: 04:20:06
(UTC-05:00)

Amateur Radio Satellites - All Passes

Search period start: 19 August 2017 03:50
Search period end: 20 August 2017 03:50
Location: Okie-Tex Star Party, 36.8978°N, 102.9520°W

Satellite Date Start Highest point End Downlink Frequencies (MHz)
Time Altitude Azimuth
AO-7 19 Aug 04:01:30 04:07:00 19° 93° (E) 04:12:27 .
Gurwin Techsat 1B 19 Aug 04:40:54 04:45:30 31° 292° (WNW) 04:50:05 435.225
YUBILEINY 19 Aug 04:49:10 04:57:56 89° 85° (E) 05:06:38 435.215
BEESAT 19 Aug 04:53:56 04:58:21 38° 262° (W) 05:02:47 436.000
MOZHAYETS 4 19 Aug 04:56:51 05:01:09 42° 261° (W) 05:05:30
ITAMSAT 1 19 Aug 04:59:36 05:04:30 42° 99° (E) 05:09:22 435.822/435.867
CUBESAT XI-V 19 Aug 05:10:41 05:15:08 48° 73° (ENE) 05:19:38 437.345
KKS-1 19 Aug 05:23:46 05:27:40 30° 70° (ENE) 05:31:34 437.445
ITUPSAT 1 19 Aug 05:28:16 05:31:28 18° 266° (W) 05:34:40 437.325
AO-7 19 Aug 05:52:09 06:00:30 80° 290° (WNW) 06:08:46 .
STARS 19 Aug 06:08:04 06:12:07 37° 72° (ENE) 06:16:11 437.465
BEESAT 3 19 Aug 06:19:58 06:23:45 43° 115° (ESE) 06:27:35 437.485
BEESAT 2 19 Aug 06:30:19 06:32:51 16° 110° (ESE) 06:35:25 435.950
AO-85 19 Aug 06:32:00 06:35:38 35° 115° (ESE) 06:39:12 145.980
ITAMSAT 1 19 Aug 06:39:48 06:43:39 22° 294° (WNW) 06:47:29 435.822/435.867
YUBILEINY 19 Aug 06:48:50 06:53:25 16° 282° (WNW) 06:58:00 435.215
CUBESAT XI-V 19 Aug 06:50:13 06:52:44 14° 268° (W) 06:55:17 437.345
CUTE-I 19 Aug 06:55:39 06:58:05 13° 91° (E) 07:00:31 437.470
KKS-1 19 Aug 07:00:45 07:04:12 22° 265° (W) 07:07:40 437.445
XW-2F 19 Aug 07:02:35 07:04:38 14° 93° (E) 07:06:41 145.980 - 146.000
DOVE 4 19 Aug 07:03:00 07:07:30 55° 100° (E) 07:11:42 437.250
KAITUO 1B 19 Aug 07:30:19 07:33:28 24° 96° (E) 07:36:37 145.475/437.950
HO-68 19 Aug 07:41:08 07:44:46 14° 91° (E) 07:48:22 435.675
LilacSat-2 19 Aug 07:44:31 07:48:21 57° 100° (E) 07:52:09 437.200
STARS 19 Aug 07:45:40 07:48:33 17° 266° (W) 07:51:27 437.465
AO-7 19 Aug 07:47:12 07:51:58 17° 308° (NW) 07:56:42 .
XW-2D 19 Aug 07:51:17 07:55:06 68° 100° (E) 07:58:56 145.860 - 145.880
BEESAT 3 19 Aug 07:58:54 08:01:30 16° 312° (NW) 08:04:09 437.485
XW-2B 19 Aug 08:02:15 08:06:06 89° 296° (WNW) 08:09:57 145.730 - 145.750
NUDT-PHONESAT 19 Aug 08:05:38 08:09:23 73° 101° (E) 08:13:07 437.300
BEESAT 2 19 Aug 08:06:35 08:10:17 36° 305° (NW) 08:14:03 435.950
PCSat 19 Aug 08:06:37 08:09:09 13° 45° (NE) 08:11:40 145.827
STRAND 1 19 Aug 08:09:17 08:14:13 51° 72° (ENE) 08:19:09 437.568
CUTE 1.7 + AOD 2 19 Aug 08:11:53 08:14:52 18° 94° (E) 08:17:51 437.475
AO-85 19 Aug 08:13:24 08:16:06 18° 311° (NW) 08:18:47 145.980
XW-2C 19 Aug 08:21:21 08:25:03 48° 286° (WNW) 08:28:45 145.795 - 145.815
CUTE-I 19 Aug 08:33:16 08:38:33 66° 287° (WNW) 08:43:47 437.470
XW-2F 19 Aug 08:35:22 08:38:50 33° 287° (WNW) 08:42:18 145.980 - 146.000
DOVE 4 19 Aug 08:42:40 08:44:35 13° 297° (WNW) 08:46:27 437.250
SEEDS 19 Aug 09:02:40 09:06:45 43° 99° (E) 09:10:47 437.485
KAITUO 1B 19 Aug 09:04:33 09:07:16 19° 290° (WNW) 09:10:00 145.475/437.950
AO-73 19 Aug 09:08:19 09:08:29 10° 91° (E) 09:08:39 145.935
HO-68 19 Aug 09:26:02 09:33:13 86° 287° (WNW) 09:40:24 435.675
NO-84 19 Aug 09:29:48 09:31:51 16° 36° (NE) 09:33:59 435.350 FM
UWE-3 19 Aug 09:34:22 09:38:28 47° 99° (E) 09:42:39 435.000/436.395/437.385
SO-50 19 Aug 09:34:37 09:39:05 52° 56° (NE) 09:43:35 436.795
CUBEBUG 2 19 Aug 09:37:30 09:41:43 86° 286° (WNW) 09:46:01 437.445
XW-2A 19 Aug 09:37:58 09:41:20 69° 282° (WNW) 09:44:42 145.665 - 145.685
Tancredo 1 19 Aug 09:38:04 09:39:15 12° 128° (SE) 09:40:26 437.200
FO-29 19 Aug 09:42:27 09:49:31 42° 69° (ENE) 09:56:03 435.910
CUTE 1.7 + AOD 2 19 Aug 09:46:54 09:50:45 33° 288° (WNW) 09:54:34 437.475
PCSat 19 Aug 09:47:53 09:53:20 86° 63° (ENE) 09:58:45 145.827
STRAND 1 19 Aug 09:50:28 09:53:38 16° 267° (W) 09:56:48 437.568
Oscar 11 19 Aug 09:52:40 09:56:20 26° 96° (E) 09:59:58 .
AAUSAT CUBESAT 2 19 Aug 09:53:55 09:58:07 79° 103° (ESE) 10:02:16 437.432
O/OREOS (USA 219) 19 Aug 10:02:19 10:05:07 16° 100° (E) 10:07:54 437.305
UNISAT 6 19 Aug 10:04:29 10:07:27 18° 68° (ENE) 10:10:24 437.425
ZACube-1 19 Aug 10:18:21 10:22:38 84° 102° (ESE) 10:27:01 437.345
nSIGHT-1 19 Aug 10:25:31 10:26:24 11° 127° (SE) 10:27:16 .
TIGRISAT 19 Aug 10:38:52 10:42:57 40° 73° (ENE) 10:46:58 435.000
SEEDS 19 Aug 10:39:43 10:42:01 14° 293° (WNW) 10:44:18 437.485
AO-73 19 Aug 10:40:47 10:45:00 59° 285° (WNW) 10:49:18 145.935
PRISM 19 Aug 10:43:30 10:47:16 34° 71° (ENE) 10:51:03 437.425
EO-88 19 Aug 10:52:45 10:54:52 15° 94° (E) 10:56:56 145.990 - 145.960
NO-84 19 Aug 11:06:17 11:09:21 43° 229° (SW) 11:12:40 435.350 FM
Tancredo 1 19 Aug 11:11:20 11:14:09 44° 322° (NW) 11:16:58 437.200
UWE-3 19 Aug 11:12:29 11:14:31 13° 293° (WNW) 11:16:35 435.000/436.395/437.385
RS-15 19 Aug 11:15:53 11:26:01 33° 103° (ESE) 11:36:16 29.354- 29.394
HO-68 19 Aug 11:16:05 11:19:55 15° 304° (NW) 11:23:43 435.675
SO-50 19 Aug 11:16:33 11:19:06 15° 251° (WSW) 11:21:40 436.795
DELFI C3 19 Aug 11:16:45 11:20:41 56° 101° (E) 11:24:33 145.870
Max Valier Satellite 19 Aug 11:26:52 11:30:31 57° 100° (E) 11:34:10 145.860
FO-29 19 Aug 11:27:25 11:34:26 37° 263° (W) 11:41:00 435.910
Oscar 11 19 Aug 11:28:50 11:32:19 24° 290° (WNW) 11:35:48 .
PCSat 19 Aug 11:35:22 11:35:53 10° 259° (WSW) 11:36:25 145.827
UNISAT 6 19 Aug 11:39:55 11:43:54 34° 262° (W) 11:47:51 437.425
O/OREOS (USA 219) 19 Aug 11:39:58 11:44:09 39° 295° (WNW) 11:48:21 437.305
ISS 19 Aug 11:48:19 11:51:36 88° 319° (NW) 11:54:54 437.550
M-CUBED/EXP-1 PRIME 19 Aug 11:49:27 11:53:36 40° 67° (ENE) 11:57:55 437.505
DUCHIFAT 1 19 Aug 11:53:50 11:54:47 11° 64° (ENE) 11:55:43 145.980
nSIGHT-1 19 Aug 11:59:08 12:02:23 62° 322° (NW) 12:05:37 .
AIST 2D 19 Aug 12:04:28 12:07:44 41° 75° (ENE) 12:11:03 435.315
ESTCUBE 1 19 Aug 12:13:38 12:15:50 13° 92° (E) 12:18:01 437.505/2401.250
JUGNU 19 Aug 12:14:36 12:15:59 11° 169° (S) 12:17:20 437.505
TIGRISAT 19 Aug 12:17:15 12:19:46 15° 267° (W) 12:22:16 435.000
PRISM 19 Aug 12:19:56 12:22:36 17° 266° (W) 12:25:17 437.425
EO-88 19 Aug 12:25:20 12:28:33 29° 288° (WNW) 12:31:45 145.990 - 145.960
LO-87 19 Aug 12:27:46 12:30:49 27° 97° (E) 12:33:52 145.935 - 145.965
NANOSAT C BR1 19 Aug 12:34:32 12:38:23 37° 73° (ENE) 12:42:15 145.865
POLYITAN 1 19 Aug 12:37:20 12:41:20 45° 73° (ENE) 12:45:20 437.675
QB50P2 19 Aug 12:52:07 12:56:19 77° 77° (ENE) 13:00:32 145.880/145.840
EO-79 19 Aug 12:53:29 12:57:40 72° 76° (ENE) 13:01:52 145.935-145.965
Oscar 19 19 Aug 13:22:19 13:25:28 16° 64° (ENE) 13:28:36 437.125/150
M-CUBED/EXP-1 PRIME 19 Aug 13:25:05 13:28:07 18° 263° (W) 13:31:15 437.505
RS-15 19 Aug 13:25:23 13:37:33 70° 303° (WNW) 13:49:55 29.354- 29.394
DUCHIFAT 1 19 Aug 13:25:47 13:29:54 58° 259° (W) 13:34:02 145.980
ISS 19 Aug 13:26:42 13:28:30 14° 336° (NNW) 13:30:19 437.550
BUGSAT 1 19 Aug 13:33:14 13:37:05 40° 73° (ENE) 13:40:55 437.445
nSIGHT-1 19 Aug 13:38:01 13:39:18 12° 339° (NNW) 13:40:34 .
ESTCUBE 1 19 Aug 13:48:28 13:52:53 50° 286° (WNW) 13:57:15 437.505/2401.250
JUGNU 19 Aug 14:01:04 14:04:08 14° 179° (S) 14:07:12 437.505
LO-87 19 Aug 14:01:59 14:03:59 15° 291° (WNW) 14:06:00 145.935 - 145.965
VELOX 1 19 Aug 14:02:53 14:07:05 42° 99° (E) 14:11:14 145.980
NANOSAT C BR1 19 Aug 14:11:42 14:14:13 15° 267° (W) 14:16:43 145.865
DX 1 19 Aug 14:11:48 14:13:58 14° 93° (E) 14:16:08 434.975-435.025
POLYITAN 1 19 Aug 14:15:26 14:17:19 13° 268° (W) 14:19:11 437.675
Gurwin Techsat 1B 19 Aug 14:19:44 14:24:37 38° 70° (ENE) 14:29:31 435.225
SPROUT 19 Aug 14:23:44 14:27:59 82° 283° (WNW) 14:32:13 437.525
BEESAT 3 19 Aug 14:39:49 14:42:01 14° 47° (NE) 14:44:12 437.485
AO-7 19 Aug 14:58:13 15:04:33 25° 57° (ENE) 15:10:51 .
Oscar 19 19 Aug 14:59:14 15:04:16 56° 259° (W) 15:09:21 437.125/150
AO-85 19 Aug 15:04:47 15:07:57 19° 50° (NE) 15:11:16 145.980
50 SAT 19 Aug 15:05:41 15:09:03 80° 284° (WNW) 15:12:23 437.505
BUGSAT 1 19 Aug 15:10:32 15:12:35 13° 267° (W) 15:14:37 437.445
UKube-1 19 Aug 15:27:52 15:32:11 69° 101° (ESE) 15:36:27 .
VELOX 1 19 Aug 15:40:28 15:43:09 16° 294° (WNW) 15:45:49 145.980
RS-15 19 Aug 15:43:26 15:52:52 24° 331° (NNW) 16:02:17 29.354- 29.394
DX 1 19 Aug 15:46:12 15:50:21 45° 287° (WNW) 15:54:29 434.975-435.025
JUGNU 19 Aug 15:50:11 15:52:19 12° 189° (S) 15:54:26 437.505
ITUPSAT 1 19 Aug 15:53:37 15:55:35 12° 92° (E) 15:57:34 437.325
YUBILEINY 19 Aug 15:53:43 15:59:38 20° 80° (E) 16:05:31 435.215
SRMSAT 19 Aug 15:57:44 16:00:27 13° 174° (S) 16:03:09 437.500
Gurwin Techsat 1B 19 Aug 16:00:26 16:04:38 24° 265° (W) 16:08:51 435.225
ITAMSAT 1 19 Aug 16:15:10 16:20:12 52° 72° (ENE) 16:25:15 435.822/435.867
BEESAT 3 19 Aug 16:16:01 16:19:53 50° 244° (WSW) 16:23:40 437.485
BEESAT 2 19 Aug 16:25:51 16:29:52 59° 58° (ENE) 16:33:49 435.950
AO-85 19 Aug 16:44:18 16:48:29 43° 245° (WSW) 16:52:58 145.980
AO-7 19 Aug 16:48:09 16:56:30 73° 255° (WSW) 17:04:53 .
MOZHAYETS 4 19 Aug 16:53:40 16:58:10 50° 100° (E) 17:02:39
nSIGHT-1 19 Aug 16:53:45 16:54:42 11° 20° (NNE) 16:55:40 .
BEESAT 19 Aug 16:55:44 17:00:28 62° 102° (ESE) 17:05:10 436.000
CUBESAT XI-V 19 Aug 17:10:50 17:13:27 15° 92° (E) 17:16:02 437.345
ITUPSAT 1 19 Aug 17:29:03 17:33:45 59° 286° (WNW) 17:38:26 437.325
Tancredo 1 19 Aug 17:35:49 17:38:41 58° 39° (NE) 17:41:32 437.200
SRMSAT 19 Aug 17:45:49 17:48:47 14° 184° (S) 17:51:43 437.500
YUBILEINY 19 Aug 17:46:37 17:55:24 75° 277° (W) 18:04:12 435.215
ITAMSAT 1 19 Aug 17:56:39 17:59:55 17° 267° (W) 18:03:12 435.822/435.867
DOVE 4 19 Aug 18:04:48 18:09:50 47° 73° (ENE) 18:14:50 437.250
RS-15 19 Aug 18:04:55 18:12:01 16° 8° (N) 18:18:57 29.354- 29.394
CUTE-I 19 Aug 18:14:45 18:18:27 19° 64° (ENE) 18:22:08 437.470
ISS 19 Aug 18:18:11 18:21:18 40° 36° (NE) 18:24:23 437.550
LilacSat-2 19 Aug 18:24:49 18:27:34 20° 70° (ENE) 18:30:22 437.200
nSIGHT-1 19 Aug 18:28:30 18:31:41 54° 37° (NE) 18:34:51 .
XW-2D 19 Aug 18:30:42 18:33:39 22° 71° (ENE) 18:36:37 145.860 - 145.880
MOZHAYETS 4 19 Aug 18:32:19 18:34:52 15° 295° (WNW) 18:37:25
BEESAT 19 Aug 18:35:30 18:37:40 13° 297° (WNW) 18:39:49 436.000
XW-2B 19 Aug 18:41:21 18:44:36 29° 72° (ENE) 18:47:53 145.730 - 145.750
NUDT-PHONESAT 19 Aug 18:43:04 18:45:54 22° 71° (ENE) 18:48:45 437.300
CUBESAT XI-V 19 Aug 18:46:30 18:51:02 49° 287° (WNW) 18:55:34 437.345
AO-7 19 Aug 18:48:14 18:50:26 11° 271° (W) 18:52:40 .
KKS-1 19 Aug 18:52:34 18:57:01 84° 104° (ESE) 19:01:26 437.445
XW-2C 19 Aug 18:59:54 19:03:32 52° 75° (ENE) 19:07:13 145.795 - 145.815
CUTE 1.7 + AOD 2 19 Aug 19:05:09 19:05:20 10° 64° (ENE) 19:05:31 437.475
XW-2F 19 Aug 19:13:12 19:16:54 76° 78° (ENE) 19:20:40 145.980 - 146.000
STARS 19 Aug 19:35:18 19:39:40 81° 282° (WNW) 19:44:00 437.465
KAITUO 1B 19 Aug 19:40:59 19:44:36 56° 260° (W) 19:48:16 145.475/437.950
DOVE 4 19 Aug 19:43:53 19:47:39 20° 267° (W) 19:51:24 437.250
YUBILEINY 19 Aug 19:50:09 19:53:46 13° 298° (WNW) 19:57:25 435.215
HO-68 19 Aug 19:51:44 19:58:40 56° 69° (ENE) 20:05:37 435.675
SEEDS 19 Aug 19:52:23 19:55:40 23° 70° (ENE) 19:58:59 437.485
CUTE-I 19 Aug 19:52:51 19:58:03 51° 260° (W) 20:03:16 437.470
ISS 19 Aug 19:55:20 19:57:31 17° 231° (SW) 19:59:42 437.550
LilacSat-2 19 Aug 19:58:40 20:01:42 23° 264° (W) 20:04:46 437.200
XW-2D 19 Aug 20:04:56 20:07:44 20° 265° (W) 20:10:34 145.860 - 145.880
nSIGHT-1 19 Aug 20:06:21 20:07:42 12° 233° (SW) 20:09:01 .
XW-2A 19 Aug 20:07:16 20:09:56 23° 72° (ENE) 20:12:36 145.665 - 145.685
O/OREOS (USA 219) 19 Aug 20:13:10 20:16:49 23° 61° (ENE) 20:20:28 437.305
XW-2B 19 Aug 20:16:34 20:18:48 15° 266° (W) 20:21:05 145.730 - 145.750
NUDT-PHONESAT 19 Aug 20:16:59 20:19:41 19° 265° (W) 20:22:24 437.300
RS-15 19 Aug 20:18:57 20:29:49 36° 41° (NE) 20:40:08 29.354- 29.394
STRAND 1 19 Aug 20:22:48 20:26:36 21° 94° (E) 20:30:22 437.568
UWE-3 19 Aug 20:29:24 20:33:00 28° 71° (ENE) 20:36:33 435.000/436.395/437.385
CUBEBUG 2 19 Aug 20:33:03 20:37:18 56° 75° (ENE) 20:41:26 437.445
CUTE 1.7 + AOD 2 19 Aug 20:36:23 20:40:33 64° 259° (WSW) 20:44:48 437.475
AAUSAT CUBESAT 2 19 Aug 20:41:30 20:45:18 36° 73° (ENE) 20:49:09 437.432
Oscar 11 19 Aug 20:46:09 20:48:43 16° 67° (ENE) 20:51:17 .
ZACube-1 19 Aug 21:11:49 21:15:47 46° 74° (ENE) 21:19:46 437.345
SEEDS 19 Aug 21:27:42 21:31:12 26° 264° (W) 21:34:44 437.485
AO-73 19 Aug 21:33:40 21:37:48 76° 76° (ENE) 21:41:56 145.935
XW-2A 19 Aug 21:40:43 21:42:38 15° 266° (W) 21:44:34 145.665 - 145.685
HO-68 19 Aug 21:41:03 21:46:40 25° 265° (W) 21:52:20 435.675
O/OREOS (USA 219) 19 Aug 21:52:14 21:56:12 30° 257° (WSW) 22:00:09 437.305
DELFI C3 19 Aug 22:00:05 22:03:16 23° 70° (ENE) 22:06:27 145.870
STRAND 1 19 Aug 22:01:08 22:05:53 40° 289° (WNW) 22:10:37 437.568
Max Valier Satellite 19 Aug 22:04:18 22:06:47 18° 69° (ENE) 22:09:16 145.860
UWE-3 19 Aug 22:06:17 22:09:26 20° 265° (W) 22:12:33 435.000/436.395/437.385
CUBEBUG 2 19 Aug 22:13:42 22:14:11 10° 269° (W) 22:14:39 437.445
AAUSAT CUBESAT 2 19 Aug 22:18:22 22:20:52 15° 267° (W) 22:23:22 437.432
Oscar 11 19 Aug 22:20:26 22:24:28 40° 262° (W) 22:28:33 .
RS-15 19 Aug 22:31:25 22:43:17 72° 246° (WSW) 22:54:29 29.354- 29.394
FO-29 19 Aug 22:40:19 22:45:17 34° 96° (E) 22:49:58 435.910
PCSat 19 Aug 22:46:34 22:49:32 15° 104° (ESE) 22:52:32 145.827
ZACube-1 19 Aug 22:50:42 22:52:18 12° 268° (W) 22:53:53 437.345
EO-88 19 Aug 22:59:55 23:03:32 77° 77° (ENE) 23:07:11 145.990 - 145.960
UNISAT 6 19 Aug 23:33:01 23:37:15 53° 100° (E) 23:41:33 437.425
DELFI C3 19 Aug 23:34:45 23:37:54 22° 265° (W) 23:41:05 145.870
Max Valier Satellite 19 Aug 23:37:26 23:40:25 24° 264° (W) 23:43:26 145.860
SO-50 19 Aug 23:47:07 23:50:57 28° 112° (ESE) 23:54:47 436.795
PRISM 20 Aug 00:01:37 00:05:45 78° 101° (ESE) 00:09:50 437.425
TIGRISAT 20 Aug 00:08:29 00:12:45 63° 284° (WNW) 00:17:04 435.000
FO-29 20 Aug 00:25:43 00:30:13 26° 295° (WNW) 00:34:29 435.910
PCSat 20 Aug 00:26:58 00:32:20 64° 299° (WNW) 00:37:44 145.827
LO-87 20 Aug 00:34:00 00:37:31 51° 260° (W) 00:41:02 145.935 - 145.965
QB50P2 20 Aug 00:40:33 00:42:54 15° 93° (E) 00:45:14 145.880/145.840
EO-79 20 Aug 00:41:56 00:44:00 13° 93° (E) 00:46:06 145.935-145.965
ESTCUBE 1 20 Aug 00:45:07 00:49:37 75° 259° (WSW) 00:54:09 437.505/2401.250
RS-15 20 Aug 00:48:46 00:53:19 13° 265° (W) 00:57:49 29.354- 29.394
VELOX 1 20 Aug 00:57:52 01:01:41 29° 70° (ENE) 01:05:30 145.980
AIST 2D 20 Aug 01:04:18 01:07:52 74° 101° (E) 01:11:25 435.315
M-CUBED/EXP-1 PRIME 20 Aug 01:04:43 01:08:49 40° 102° (ESE) 01:12:36 437.505
UNISAT 6 20 Aug 01:11:44 01:13:30 12° 295° (WNW) 01:15:16 437.425
DUCHIFAT 1 20 Aug 01:12:17 01:15:42 24° 96° (E) 01:19:07 145.980
SPROUT 20 Aug 01:14:21 01:18:30 53° 75° (ENE) 01:22:39 437.525
SO-50 20 Aug 01:27:25 01:31:19 28° 308° (NW) 01:35:14 436.795
50 SAT 20 Aug 01:34:44 01:37:25 22° 71° (ENE) 01:40:07 437.505
NANOSAT C BR1 20 Aug 01:56:02 02:00:14 84° 283° (WNW) 02:04:25 145.865
POLYITAN 1 20 Aug 01:59:37 02:03:47 68° 285° (WNW) 02:07:58 437.675
QB50P2 20 Aug 02:14:53 02:18:50 39° 287° (WNW) 02:22:45 145.880/145.840
EO-79 20 Aug 02:15:59 02:19:56 42° 287° (WNW) 02:23:55 145.935-145.965
UKube-1 20 Aug 02:19:49 02:23:53 42° 72° (ENE) 02:27:59 .
NO-84 20 Aug 02:21:20 02:24:12 49° 131° (SE) 02:26:58 435.350 FM
VELOX 1 20 Aug 02:34:33 02:38:04 23° 265° (W) 02:41:37 145.980
DX 1 20 Aug 02:38:46 02:43:07 73° 257° (WSW) 02:47:32 434.975-435.025
Gurwin Techsat 1B 20 Aug 02:39:06 02:42:40 18° 93° (E) 02:46:12 435.225
M-CUBED/EXP-1 PRIME 20 Aug 02:40:01 02:42:48 17° 300° (WNW) 02:45:28 437.505
DUCHIFAT 1 20 Aug 02:47:55 02:51:15 24° 290° (WNW) 02:54:36 145.980
BUGSAT 1 20 Aug 02:51:54 02:55:55 82° 283° (WNW) 02:59:56 437.445
SPROUT 20 Aug 02:53:33 02:54:41 11° 269° (W) 02:55:48 437.525
ITUPSAT 1 20 Aug 02:58:48 03:00:42 12° 63° (ENE) 03:02:35 437.325
50 SAT 20 Aug 03:07:47 03:10:01 16° 265° (W) 03:12:16 437.505
Oscar 19 20 Aug 03:12:54 03:18:05 62° 102° (ESE) 03:23:12 437.125/150
